logo Eve Who17,727,092 Characters
835,841 Corporations
9,245 Alliances

Home Pilots Corporations Alliances FAQ 

corp logo
alli logo
character image
Character:jacky Audeles
Corporation:Dreddit
Alliance:Test Alliance Please Ignore
Sec. Status:4.2
Links:zKillboard
EveSkillBoard
Eve-Search
Last Updated: 2019-07-22 04:17:17 | 93444333
Corp. History
 NameJoinedLeft
corp logoDreddit2019/06/22 14:04
corp logoRelentless Reprisal2019/06/13 20:542019/06/22 14:03
corp logoThe Scope2019/06/13 19:022019/06/13 20:53
corp logoBlack Aces2019/06/08 01:552019/06/13 19:01
corp logoThe Scope2019/06/08 01:552019/06/08 01:54
corp logoRelentless Reprisal2019/05/09 16:522019/06/08 01:54
corp logoThe Scope2019/05/09 16:332019/05/09 16:51
corp logoKarmaFleet2019/04/27 00:122019/05/09 16:32
corp logoThe Scope2019/04/27 00:122019/04/27 00:11
corp logoFink Operations2018/07/08 00:492019/04/27 00:11
corp logoThe Scope2018/07/08 00:472018/07/08 00:48
corp logoManes Ex Eden Novi2018/05/07 17:462018/07/08 00:46
corp logoThe Scope2018/05/07 17:452018/05/07 17:45
corp logoDivision De Spiritu Sancto2018/03/21 15:422018/05/07 17:44
corp logoThe Scope2018/03/21 15:412018/03/21 15:41
corp logoThe Unemployment Agency2018/02/09 15:122018/03/21 15:40
corp logoThe Scope2018/02/08 16:442018/02/09 15:11
corp logoThe Infinite Oblivion2018/01/06 18:392018/02/08 16:43
corp logoThe Scope2018/01/04 17:362018/01/06 18:38
corp logoSuper Mega Ultra Attack Force2017/12/22 16:132018/01/04 17:35
corp logoThe Scope2017/12/22 16:132017/12/22 16:12
corp logoResurrection Complex2017/12/09 00:572017/12/22 16:12
corp logoThe Scope2017/12/09 00:572017/12/09 00:56
corp logoWEL Inc2016/12/04 00:202017/12/09 00:56
corp logoThe Scope2016/04/30 19:042016/12/04 00:19
corp logoRunning with Dogs2016/04/01 20:382016/04/30 19:03
corp logoThe Scope2016/03/13 18:592016/04/01 20:37
corp logoXX Industries2016/03/08 23:242016/03/13 18:58
corp logoThe Scope2016/03/08 23:232016/03/08 23:23
corp logoStronghelm Corporation2016/02/21 15:012016/03/08 23:22
corp logoThe Scope2016/02/21 15:002016/02/21 15:00
corp logoMegaTech Unlimited2015/12/30 02:362016/02/21 14:59
corp logoAlcoholocaust.2015/09/26 03:412015/12/30 02:35
corp logoThe Scope2015/04/30 06:302015/09/26 03:40
corp logoStar Frontiers2015/01/28 05:162015/04/30 06:29
corp logoThe Scope2015/01/28 05:152015/01/28 05:15
corp logoUnholy Knights of Cthulhu2014/11/29 19:192015/01/28 05:14
corp logoThe Scope2014/11/29 19:032014/11/29 19:18
corp logoTinker's Workshop2014/11/08 00:382014/11/29 19:02
corp logoThe Scope2014/09/10 15:192014/11/08 00:37
corp logoEvisceral Rampage2014/08/14 21:462014/09/10 15:18
corp logoThe Scope2014/08/14 18:452014/08/14 21:45
corp logoWhiteStar Industries2014/07/12 17:472014/08/14 18:44
corp logoThe Scope2014/07/12 17:462014/07/12 17:46
corp logoWhitestar Agency2014/06/30 22:402014/07/12 17:45
corp logoThe Scope2014/06/30 22:342014/06/30 22:39
corp logoEve's Miners2014/06/30 02:012014/06/30 22:33
corp logoThe Scope2014/06/30 02:002014/06/30 02:00
corp logoArtificial Intelligence.2014/06/18 01:572014/06/30 01:59
corp logoThe Scope2014/01/06 19:472014/06/18 01:56
corp logoProtomonolithic2013/07/13 22:532014/01/06 19:46
corp logoThe Scope2013/07/13 22:472013/07/13 22:52
corp logoKinetic Miners2013/06/20 22:002013/07/13 22:46
corp logoThe Scope2013/06/20 20:472013/06/20 21:59
corp logoWe Mine First2013/06/16 05:462013/06/20 20:46
corp logoCenter for Advanced Studies2013/06/07 04:462013/06/16 05:45


Any pilots, corporations, or alliances that relate to actual people or entities are purely coincidental.
7q/37ms Disclaimer A / C Brought to you by: Squizz Caphinator Forum Thread
EVE Online and the EVE logo are the registered trademarks of CCP hf. All rights are reserved worldwide. All other trademarks are the property of their respective owners. EVE Online, the EVE logo, EVE and all associated logos and designs are the intellectual property of CCP hf. All artwork, screenshots, characters, vehicles, storylines, world facts or other recognizable features of the intellectual property relating to these trademarks are likewise the intellectual property of CCP hf. CCP hf. has granted permission to evewho.com to use EVE Online and all associated logos and designs for promotional and information purposes on its website but does not endorse, and is not in any way affiliated with, evewho.com. CCP is in no way responsible for the content on or functioning of this website, nor can it be liable for any damage arising from the use of this website.